Home   Weather   Santa Maria   Past weeks

Flag for Cabo Verde Past Weather in Santa Maria, Cabo Verde — Yesterday and Last 2 Weeks

Now
68 °F

Partly cloudy.


Feels Like: 68 °F
Forecast: N/A
Wind: 15 mph from Northeast

Location: Sal

Current Time: Feb 25, 2017 at 10:23:24 pm

Latest Report: Feb 25, 2017 at 10:00 pm


Visibility: N/A

Pressure: 30.07 "Hg

Humidity: 78%

Dew Point: 61 °F

Location of Santa MariaLocation

Past Weather in Santa Maria — Graph

°F

Santa Maria Temperature Yesterday

Maximum temperature yesterday: 75 °F (at 12:00 pm)
Minimum temperature yesterday: 66 °F (at 12:00 am)
Average temperature yesterday: 70 °F

High & Low Weather Summary for the Past Weeks

 TemperatureHumidityPressure
High79 °F (Feb 18, 1:00 pm)94% (Feb 19, 4:00 am)30.09 "Hg (Feb 19, 4:00 am)
Low63 °F (Feb 12, 4:00 am)47% (Feb 12, 3:00 pm)29.86 "Hg (Feb 12, 4:00 pm)
Average70 °F67%30.00 "Hg
* Reported Feb 10 9:00 pm — Feb 25 9:00 pm, Santa Maria, Weather by CustomWeather, © 2017

Note: Actual official high and low records may vary slightly from our data, if they occured in-between our weather recording intervals... More about our weather records

Advertising

Santa Maria Weather History for the Previous 24 Hours

Scroll right to see more
 ConditionsComfort  
Time TempWeatherWind HumidityBarometerVisibility
9:00 pm
Sat, Feb 25
68 °FPartly cloudy.17 mph78%30.04 "HgN/A
8:00 pm68 °FPartly cloudy.16 mph78%30.01 "HgN/A
7:00 pm70 °FPartly cloudy.16 mph73%30.01 "HgN/A
6:00 pm70 °FPassing clouds.21 mph73%29.98 "HgN/A
5:00 pm73 °FPassing clouds.22 mph65%29.98 "HgN/A
4:00 pm75 °FPartly sunny.22 mph57%29.98 "HgN/A
3:00 pm75 °FPartly sunny.22 mph57%29.98 "HgN/A
2:00 pm75 °FPartly sunny.22 mph54%30.01 "HgN/A
1:00 pm75 °FPartly sunny.23 mph57%30.01 "HgN/A
12:00 pm75 °FPartly sunny.23 mph57%30.04 "HgN/A
11:00 am75 °FPartly sunny.21 mph57%30.04 "HgN/A
10:00 am73 °FPartly sunny.22 mph57%30.04 "HgN/A
9:00 am70 °FPartly sunny.20 mph64%30.04 "HgN/A
8:00 am68 °FPartly sunny.17 mph73%30.04 "HgN/A
7:00 am66 °FScattered clouds.15 mph73%30.01 "HgN/A
6:00 am66 °FPassing clouds.12 mph73%30.01 "Hg6 mi
5:00 am66 °FPassing clouds.13 mph78%29.98 "Hg6 mi
4:00 am66 °FPassing clouds.13 mph78%30.01 "Hg6 mi
3:00 am66 °FPassing clouds.14 mph78%30.01 "Hg6 mi
2:00 am66 °FPassing clouds.12 mph83%30.01 "HgN/A
1:00 am66 °FPartly cloudy.13 mph83%30.04 "HgN/A
12:00 am68 °FPartly cloudy.15 mph73%30.04 "HgN/A
11:00 pm
Fri, Feb 24
68 °FPartly cloudy.15 mph73%30.04 "HgN/A
10:00 pm68 °FPartly cloudy.15 mph73%30.04 "HgN/A
Weather by CustomWeather, © 2017

See weather overviewHow to use our weather pages